Location: Monroe
(41.9160°N, 83.3980°W)
Time: 12:48:28
(UTC-04:00)

Amateur Radio Satellites - All Passes

Search period start: 23 May 2017 12:18
Search period end: 24 May 2017 12:18
Location: Monroe, 41.9160°N, 83.3980°W

Satellite Date Start Highest point End Downlink Frequencies (MHz)
Time Altitude Azimuth
YUBILEINY 23 May 12:18:39 12:25:56 28° 67° (ENE) 12:33:10 435.215
EO-79 23 May 12:19:34 12:23:42 61° 74° (ENE) 12:27:51 145.935-145.965
BUGSAT 1 23 May 12:20:14 12:22:36 15° 64° (ENE) 12:24:58 437.445
ESTCUBE 1 23 May 12:21:14 12:25:01 26° 95° (E) 12:28:45 437.505/2401.250
EO-88 23 May 12:28:25 12:31:02 19° 292° (WNW) 12:33:39 145.990 - 145.960
AIST 2D 23 May 12:34:37 12:37:53 37° 262° (W) 12:41:11 435.315
Oscar 19 23 May 13:02:17 13:06:07 21° 63° (ENE) 13:09:56 437.125/150
NANOSAT C BR1 23 May 13:07:34 13:11:30 41° 261° (W) 13:15:28 145.865
POLYITAN 1 23 May 13:08:35 13:12:27 36° 262° (W) 13:16:20 437.675
QB50P2 23 May 13:17:24 13:20:58 27° 264° (W) 13:24:34 145.880/145.840
RS-15 23 May 13:17:50 13:29:57 73° 243° (WSW) 13:41:26 29.354- 29.394
DUCHIFAT 1 23 May 13:20:37 13:24:22 32° 263° (W) 13:28:09 145.980
LO-87 23 May 13:23:42 13:26:44 27° 289° (WNW) 13:29:45 145.935 - 145.965
50 SAT 23 May 13:32:39 13:34:53 16° 94° (E) 13:37:06 437.505
VELOX 1 23 May 13:33:18 13:37:24 38° 98° (E) 13:41:28 145.980
AO-7 23 May 13:38:17 13:41:19 12° 42° (NE) 13:44:20 .
Gurwin Techsat 1B 23 May 13:48:21 13:53:03 33° 67° (ENE) 13:57:46 435.225
BUGSAT 1 23 May 13:53:47 13:57:36 43° 261° (W) 14:01:26 437.445
NO-84 23 May 13:54:28 13:56:30 13° 350° (N) 13:58:29 435.350 FM
SPROUT 23 May 13:55:47 14:00:03 71° 101° (ESE) 14:04:19 437.525
ESTCUBE 1 23 May 13:57:50 14:01:48 31° 291° (WNW) 14:05:44 437.505/2401.250
EO-79 23 May 13:58:35 13:59:51 11° 270° (W) 14:01:07 145.935-145.965
O/OREOS (USA 219) 23 May 14:11:40 14:14:43 17° 54° (NE) 14:17:43 437.305
YUBILEINY 23 May 14:14:42 14:23:27 68° 267° (W) 14:32:10 435.215
DX 1 23 May 14:20:59 14:25:08 44° 99° (E) 14:29:16 434.975-435.025
UKube-1 23 May 14:21:12 14:25:00 30° 97° (E) 14:28:47 .
Oscar 19 23 May 14:39:59 14:45:02 52° 260° (W) 14:50:07 437.125/150
AO-85 23 May 14:56:27 15:00:26 58° 55° (NE) 15:04:36 145.980
BEESAT 3 23 May 15:00:49 15:04:01 22° 45° (NE) 15:07:11 437.485
50 SAT 23 May 15:04:53 15:07:46 26° 290° (WNW) 15:10:39 437.505
VELOX 1 23 May 15:10:21 15:13:35 20° 295° (WNW) 15:16:49 145.980
AO-7 23 May 15:24:15 15:32:09 52° 64° (ENE) 15:40:07 .
Gurwin Techsat 1B 23 May 15:28:14 15:32:57 32° 264° (W) 15:37:42 435.225
NO-84 23 May 15:33:20 15:35:28 14° 12° (NNE) 15:37:32 435.350 FM
RS-15 23 May 15:33:34 15:40:01 17° 265° (W) 15:46:20 29.354- 29.394
ITAMSAT 1 23 May 15:33:38 15:38:32 45° 69° (ENE) 15:43:26 435.822/435.867
SPROUT 23 May 15:33:59 15:35:22 11° 298° (WNW) 15:36:45 437.525
BEESAT 23 May 15:42:28 15:46:05 21° 94° (E) 15:49:41 436.000
O/OREOS (USA 219) 23 May 15:50:03 15:54:27 53° 252° (WSW) 15:58:49 437.305
MOZHAYETS 4 23 May 15:57:18 16:00:15 17° 91° (E) 16:03:11
UKube-1 23 May 15:57:24 16:00:53 24° 293° (WNW) 16:04:21 .
DX 1 23 May 15:58:05 16:00:59 18° 296° (WNW) 16:03:52 434.975-435.025
BEESAT 2 23 May 16:09:21 16:13:11 39° 51° (NE) 16:16:59 435.950
YUBILEINY 23 May 16:15:32 16:18:26 12° 287° (WNW) 16:21:20 435.215
BEESAT 3 23 May 16:37:59 16:41:43 38° 244° (WSW) 16:45:24 437.485
AO-85 23 May 16:38:25 16:40:24 13° 250° (WSW) 16:42:26 145.980
ITUPSAT 1 23 May 16:43:14 16:48:04 84° 103° (ESE) 16:52:53 437.325
NO-84 23 May 17:10:24 17:13:57 40° 33° (NNE) 17:17:11 435.350 FM
ITAMSAT 1 23 May 17:14:11 17:18:11 22° 266° (W) 17:22:12 435.822/435.867
KKS-1 23 May 17:16:41 17:19:24 16° 92° (E) 17:22:06 437.445
AO-7 23 May 17:17:40 17:25:07 37° 262° (W) 17:32:38 .
BEESAT 23 May 17:19:30 17:24:01 42° 290° (WNW) 17:28:31 436.000
MOZHAYETS 4 23 May 17:33:10 17:37:41 50° 288° (WNW) 17:42:10
DOVE 4 23 May 17:33:44 17:37:18 22° 68° (ENE) 17:40:44 437.250
BEESAT 2 23 May 17:47:42 17:50:41 20° 248° (WSW) 17:53:38 435.950
STARS 23 May 17:57:21 18:00:24 18° 93° (E) 18:03:28 437.465
XW-2D 23 May 18:02:30 18:05:22 21° 68° (ENE) 18:08:16 145.860 - 145.880
CUBESAT XI-V 23 May 18:09:28 18:14:09 71° 102° (ESE) 18:18:46 437.345
XW-2B 23 May 18:10:05 18:13:10 24° 69° (ENE) 18:16:17 145.730 - 145.750
XW-2C 23 May 18:23:07 18:26:34 34° 72° (ENE) 18:30:05 145.795 - 145.815
ITUPSAT 1 23 May 18:23:19 18:25:12 12° 301° (WNW) 18:27:04 437.325
XW-2F 23 May 18:24:50 18:28:16 34° 72° (ENE) 18:31:46 145.980 - 146.000
NUDT-PHONESAT 23 May 18:34:50 18:38:14 36° 72° (ENE) 18:41:41 437.300
KAITUO 1B 23 May 18:38:16 18:41:49 41° 73° (ENE) 18:45:24 145.475/437.950
CUTE-I 23 May 18:42:29 18:47:40 59° 72° (ENE) 18:52:54 437.470
HO-68 23 May 18:46:08 18:51:52 27° 59° (ENE) 18:57:37 435.675
NO-84 23 May 18:48:31 18:51:16 21° 233° (SW) 18:53:49 435.350 FM
KKS-1 23 May 18:51:56 18:56:13 48° 288° (WNW) 19:00:28 437.445
LilacSat-2 23 May 18:56:50 19:00:39 83° 259° (W) 19:04:32 437.200
DOVE 4 23 May 19:10:25 19:14:48 37° 262° (W) 19:18:59 437.250
CUTE 1.7 + AOD 2 23 May 19:18:26 19:21:49 23° 68° (ENE) 19:25:13 437.475
CUBEBUG 2 23 May 19:22:24 19:24:02 12° 62° (ENE) 19:25:40 437.445
STARS 23 May 19:32:48 19:36:54 41° 289° (WNW) 19:41:00 437.465
XW-2D 23 May 19:36:07 19:39:24 27° 264° (W) 19:42:43 145.860 - 145.880
UWE-3 23 May 19:40:16 19:41:41 12° 62° (ENE) 19:43:07 435.000/436.395/437.385
XW-2B 23 May 19:44:13 19:47:17 23° 265° (W) 19:50:23 145.730 - 145.750
STRAND 1 23 May 19:47:05 19:49:52 14° 90° (E) 19:52:37 437.568
PCSat 23 May 19:47:11 19:51:03 20° 106° (ESE) 19:54:56 145.827
CUBESAT XI-V 23 May 19:48:44 19:50:54 13° 299° (WNW) 19:53:04 437.345
AAUSAT CUBESAT 2 23 May 19:49:57 19:52:30 16° 65° (ENE) 19:55:03 437.432
XW-2C 23 May 19:58:28 20:00:53 16° 268° (W) 20:03:19 145.795 - 145.815
XW-2A 23 May 19:59:15 20:02:30 54° 75° (ENE) 20:05:49 145.665 - 145.685
XW-2F 23 May 20:00:08 20:02:32 16° 268° (W) 20:04:57 145.980 - 146.000
NUDT-PHONESAT 23 May 20:10:10 20:12:17 15° 268° (W) 20:14:26 437.300
SEEDS 23 May 20:13:24 20:17:34 59° 74° (ENE) 20:21:47 437.485
KAITUO 1B 23 May 20:14:08 20:16:02 13° 269° (W) 20:17:56 145.475/437.950
CUTE-I 23 May 20:24:38 20:28:06 18° 268° (W) 20:31:36 437.470
Oscar 11 23 May 20:25:39 20:28:17 16° 64° (ENE) 20:30:56 .
HO-68 23 May 20:31:57 20:39:03 64° 257° (WSW) 20:46:13 435.675
AO-73 23 May 20:46:49 20:50:30 31° 69° (ENE) 20:54:16 145.935
CUTE 1.7 + AOD 2 23 May 20:53:40 20:57:28 31° 264° (W) 21:01:19 437.475
CUBEBUG 2 23 May 20:56:00 21:00:05 62° 259° (W) 21:04:16 437.445
ZACube-1 23 May 20:58:23 21:02:22 45° 72° (ENE) 21:06:28 437.345
UWE-3 23 May 21:13:26 21:17:33 67° 260° (W) 21:21:47 435.000/436.395/437.385
M-CUBED/EXP-1 PRIME 23 May 21:19:07 21:20:48 13° 98° (E) 21:22:27 437.505
Tancredo 1 23 May 21:20:49 21:22:43 15° 132° (SE) 21:24:35 437.200
ISS 23 May 21:21:22 21:21:53 10° 129° (SE) 21:22:23 437.550
AAUSAT CUBESAT 2 23 May 21:23:33 21:27:34 46° 261° (W) 21:31:37 437.432
STRAND 1 23 May 21:24:23 21:29:30 68° 287° (WNW) 21:34:37 437.568
PCSat 23 May 21:28:38 21:33:58 58° 303° (WNW) 21:39:21 145.827
EO-88 23 May 21:33:30 21:35:30 14° 66° (ENE) 21:37:31 145.990 - 145.960
SEEDS 23 May 21:51:58 21:53:38 12° 270° (W) 21:55:17 437.485
Oscar 11 23 May 21:59:47 22:04:00 50° 261° (W) 22:08:15 .
FO-29 23 May 22:01:32 22:03:58 12° 89° (E) 22:06:29 435.910
DELFI C3 23 May 22:12:38 22:16:35 62° 75° (ENE) 22:20:32 145.870
AO-73 23 May 22:23:28 22:26:46 22° 266° (W) 22:30:08 145.935
TIGRISAT 23 May 22:25:53 22:27:48 12° 90° (E) 22:29:45 435.000
PRISM 23 May 22:28:43 22:31:13 16° 93° (E) 22:33:42 437.425
ZACube-1 23 May 22:36:28 22:38:55 15° 269° (W) 22:41:25 437.345
M-CUBED/EXP-1 PRIME 23 May 22:52:26 22:55:25 30° 295° (WNW) 22:58:19 437.505
ISS 23 May 22:54:35 22:57:53 88° 140° (SE) 23:01:11 437.550
UNISAT 6 23 May 22:54:57 22:58:52 27° 95° (E) 23:02:50 437.425
Tancredo 1 23 May 22:55:08 22:58:10 58° 328° (NNW) 23:01:13 437.200
EO-88 23 May 23:05:25 23:08:50 38° 261° (W) 23:12:18 145.990 - 145.960
PCSat 23 May 23:16:26 23:18:34 12° 325° (NW) 23:20:43 145.827
ESTCUBE 1 23 May 23:21:02 23:24:46 26° 67° (ENE) 23:28:29 437.505/2401.250
SO-50 23 May 23:33:12 23:37:20 34° 115° (ESE) 23:41:27 436.795
FO-29 23 May 23:43:22 23:49:40 78° 103° (ESE) 23:56:48 435.910
DELFI C3 23 May 23:51:23 23:51:44 10° 271° (W) 23:52:05 145.870
LO-87 23 May 23:59:14 00:02:47 67° 259° (WSW) 00:06:19 145.935 - 145.965
AIST 2D 24 May 00:00:08 00:02:15 15° 92° (E) 00:04:21 435.315
TIGRISAT 24 May 00:00:20 00:04:52 67° 286° (WNW) 00:09:29 435.000
PRISM 24 May 00:02:51 00:06:41 41° 289° (WNW) 00:10:29 437.425
VELOX 1 24 May 00:30:39 00:34:40 36° 70° (ENE) 00:38:43 145.980
UNISAT 6 24 May 00:31:32 00:35:32 30° 291° (WNW) 00:39:33 437.425
ISS 24 May 00:32:07 00:34:44 21° 343° (NNW) 00:37:20 437.550
Tancredo 1 24 May 00:32:21 00:34:26 17° 347° (NNW) 00:36:31 437.200
SPROUT 24 May 00:49:06 00:53:13 54° 73° (ENE) 00:57:22 437.525
NANOSAT C BR1 24 May 00:51:21 00:55:04 28° 96° (E) 00:58:45 145.865
POLYITAN 1 24 May 00:52:41 00:56:33 33° 97° (E) 01:00:24 437.675
ESTCUBE 1 24 May 00:57:22 01:01:25 32° 264° (W) 01:05:30 437.505/2401.250
QB50P2 24 May 01:01:00 01:05:06 44° 99° (E) 01:09:11 145.880/145.840
DUCHIFAT 1 24 May 01:03:42 01:07:37 35° 98° (E) 01:11:29 145.980
SO-50 24 May 01:13:45 01:17:48 30° 313° (NW) 01:21:50 436.795
UKube-1 24 May 01:15:56 01:19:35 27° 68° (ENE) 01:23:14 .
DX 1 24 May 01:16:35 01:20:39 40° 70° (ENE) 01:24:43 434.975-435.025
YUBILEINY 24 May 01:20:49 01:28:00 30° 83° (E) 01:35:13 435.215
FO-29 24 May 01:29:56 01:34:12 20° 299° (WNW) 01:38:48 435.910
AIST 2D 24 May 01:32:20 01:35:33 32° 288° (WNW) 01:38:45 435.315
RS-15 24 May 01:33:53 01:40:59 18° 96° (E) 01:48:08 29.354- 29.394
BUGSAT 1 24 May 01:35:06 01:38:28 24° 95° (E) 01:41:50 437.445
50 SAT 24 May 01:36:36 01:40:04 74° 258° (WSW) 01:43:32 437.505
EO-79 24 May 01:39:14 01:43:28 74° 286° (WNW) 01:47:43 145.935-145.965
Gurwin Techsat 1B 24 May 02:06:02 02:07:59 12° 88° (E) 02:09:55 435.225
VELOX 1 24 May 02:07:49 02:11:12 21° 266° (W) 02:14:36 145.980
Tancredo 1 24 May 02:09:18 02:11:07 14° 8° (N) 02:12:55 437.200
ISS 24 May 02:10:05 02:12:07 15° 3° (N) 02:14:09 437.550
ITUPSAT 1 24 May 02:15:47 02:17:41 12° 59° (ENE) 02:19:35 437.325
NANOSAT C BR1 24 May 02:27:12 02:30:39 25° 292° (WNW) 02:34:06 145.865
SPROUT 24 May 02:27:31 02:29:28 13° 269° (W) 02:31:24 437.525
POLYITAN 1 24 May 02:28:50 02:32:09 22° 293° (WNW) 02:35:27 437.675
QB50P2 24 May 02:37:46 02:40:32 17° 295° (WNW) 02:43:18 145.880/145.840
DUCHIFAT 1 24 May 02:39:54 02:43:02 21° 294° (WNW) 02:46:12 145.980
BEESAT 24 May 02:49:06 02:53:00 26° 66° (ENE) 02:56:55 436.000
Oscar 19 24 May 02:51:01 02:56:06 54° 100° (E) 03:01:07 437.125/150
UKube-1 24 May 02:51:53 02:55:32 27° 264° (W) 02:59:12 .
DX 1 24 May 02:53:56 02:56:59 18° 267° (W) 03:00:02 434.975-435.025
MOZHAYETS 4 24 May 02:59:43 03:02:43 17° 64° (ENE) 03:05:44
BUGSAT 1 24 May 03:10:16 03:13:47 28° 291° (WNW) 03:17:20 437.445
YUBILEINY 24 May 03:15:39 03:24:12 60° 283° (WNW) 03:32:52 435.215
AO-7 24 May 03:27:53 03:31:50 14° 88° (E) 03:35:45 .
RS-15 24 May 03:39:12 03:51:13 75° 117° (ESE) 04:03:33 29.354- 29.394
Gurwin Techsat 1B 24 May 03:43:13 03:48:34 84° 286° (WNW) 03:53:53 435.225
Tancredo 1 24 May 03:44:40 03:47:32 36° 27° (NNE) 03:50:24 437.200
ISS 24 May 03:46:27 03:49:23 29° 23° (NNE) 03:52:19 437.550
ITAMSAT 1 24 May 03:47:23 03:50:19 15° 91° (E) 03:53:15 435.822/435.867
ITUPSAT 1 24 May 03:50:04 03:54:49 82° 258° (WSW) 03:59:38 437.325
KKS-1 24 May 04:15:19 04:18:05 16° 63° (ENE) 04:20:52 437.445
O/OREOS (USA 219) 24 May 04:24:55 04:27:51 17° 100° (E) 04:30:47 437.305
BEESAT 24 May 04:26:17 04:30:37 35° 263° (W) 04:34:58 436.000
Oscar 19 24 May 04:31:19 04:35:00 20° 297° (WNW) 04:38:40 437.125/150
PCSat 24 May 04:33:29 04:37:37 21° 44° (NE) 04:41:42 145.827
MOZHAYETS 4 24 May 04:34:59 04:39:27 51° 260° (W) 04:43:59
STARS 24 May 04:54:32 04:57:29 18° 64° (ENE) 05:00:27 437.465
CUBESAT XI-V 24 May 05:12:35 05:17:16 71° 75° (ENE) 05:21:59 437.345
AO-85 24 May 05:12:47 05:15:23 16° 112° (ESE) 05:17:53 145.980
AO-7 24 May 05:17:29 05:25:53 75° 106° (ESE) 05:34:15 .
YUBILEINY 24 May 05:20:26 05:23:13 12° 306° (NW) 05:25:59 435.215
Tancredo 1 24 May 05:20:36 05:23:13 26° 224° (SW) 05:25:50 437.200
ISS 24 May 05:22:50 05:25:57 42° 221° (SW) 05:29:04 437.550
ITAMSAT 1 24 May 05:25:04 05:30:15 67° 287° (WNW) 05:35:24 435.822/435.867
Gurwin Techsat 1B 24 May 05:25:42 05:27:40 12° 303° (WNW) 05:29:39 435.225
KKS-1 24 May 05:49:56 05:54:14 50° 260° (W) 05:58:34 437.445
RS-15 24 May 05:53:30 06:04:51 41° 323° (NW) 06:16:22 29.354- 29.394
O/OREOS (USA 219) 24 May 06:02:22 06:06:49 49° 296° (WNW) 06:11:19 437.305
PCSat 24 May 06:16:06 06:21:31 68° 244° (WSW) 06:26:52 145.827
BEESAT 3 24 May 06:27:49 06:31:14 29° 115° (ESE) 06:34:44 437.485
STARS 24 May 06:29:21 06:33:30 43° 261° (W) 06:37:40 437.465
LilacSat-2 24 May 06:32:18 06:33:01 10° 90° (E) 06:33:44 437.200
AO-85 24 May 06:51:24 06:55:26 47° 307° (NW) 06:59:18 145.980
CUBESAT XI-V 24 May 06:53:21 06:55:07 12° 271° (W) 06:56:54 437.345
CUTE-I 24 May 06:59:44 07:03:55 23° 94° (E) 07:08:03 437.470
STRAND 1 24 May 07:02:55 07:06:49 23° 64° (ENE) 07:10:44 437.568
XW-2D 24 May 07:07:55 07:11:16 28° 96° (E) 07:14:36 145.860 - 145.880
DOVE 4 24 May 07:08:13 07:12:17 51° 100° (E) 07:16:24 437.250
AO-7 24 May 07:11:16 07:17:53 27° 306° (NW) 07:24:31 .
XW-2B 24 May 07:15:39 07:19:10 33° 97° (E) 07:22:39 145.730 - 145.750
XW-2C 24 May 07:28:59 07:32:45 49° 99° (E) 07:36:29 145.795 - 145.815
XW-2F 24 May 07:30:13 07:33:58 48° 99° (E) 07:37:40 145.980 - 146.000
BEESAT 2 24 May 07:37:53 07:41:48 62° 119° (ESE) 07:45:47 435.950
NUDT-PHONESAT 24 May 07:38:17 07:41:58 48° 99° (E) 07:45:37 437.300
KAITUO 1B 24 May 07:42:43 07:46:28 57° 100° (E) 07:50:12 145.475/437.950
HO-68 24 May 07:59:58 08:05:43 25° 93° (E) 08:11:25 435.675
SO-50 24 May 08:03:47 08:07:56 35° 49° (NE) 08:12:04 436.795
LilacSat-2 24 May 08:03:49 08:07:39 56° 285° (WNW) 08:11:26 437.200
M-CUBED/EXP-1 PRIME 24 May 08:03:52 08:07:24 26° 65° (ENE) 08:10:47 437.505
BEESAT 3 24 May 08:05:23 08:08:47 27° 312° (NW) 08:12:16 437.485
RS-15 24 May 08:12:36 08:22:04 24° 356° (N) 08:31:26 29.354- 29.394
CUTE 1.7 + AOD 2 24 May 08:37:38 08:41:42 41° 98° (E) 08:45:43 437.475
CUTE-I 24 May 08:39:04 08:44:09 46° 290° (WNW) 08:49:14 437.470
STRAND 1 24 May 08:40:49 08:45:41 46° 261° (W) 08:50:36 437.568
XW-2D 24 May 08:42:21 08:45:18 21° 292° (WNW) 08:48:13 145.860 - 145.880
CUBEBUG 2 24 May 08:46:09 08:50:02 27° 95° (E) 08:53:58 437.445
DOVE 4 24 May 08:47:26 08:49:35 14° 296° (WNW) 08:51:45 437.250
XW-2B 24 May 08:50:27 08:53:07 18° 293° (WNW) 08:55:46 145.730 - 145.750
XW-2A 24 May 08:53:07 08:56:31 55° 100° (E) 08:59:54 145.665 - 145.685
UWE-3 24 May 09:02:36 09:06:21 24° 94° (E) 09:10:08 435.000/436.395/437.385
XW-2C 24 May 09:04:43 09:06:30 13° 296° (WNW) 09:08:17 145.795 - 145.815
AAUSAT CUBESAT 2 24 May 09:05:31 09:08:57 25° 95° (E) 09:12:22 437.432
XW-2F 24 May 09:05:52 09:07:40 13° 296° (WNW) 09:09:26 145.980 - 146.000
NUDT-PHONESAT 24 May 09:13:48 09:15:26 12° 296° (WNW) 09:17:04 437.300
BEESAT 2 24 May 09:17:24 09:19:57 16° 318° (NW) 09:22:31 435.950
KAITUO 1B 24 May 09:18:50 09:19:59 11° 296° (WNW) 09:21:07 145.475/437.950
PRISM 24 May 09:19:02 09:21:01 13° 63° (ENE) 09:22:59 437.425
TIGRISAT 24 May 09:26:09 09:27:21 11° 61° (ENE) 09:28:33 435.000
SEEDS 24 May 09:32:15 09:36:29 73° 284° (WNW) 09:40:39 437.485
M-CUBED/EXP-1 PRIME 24 May 09:37:58 09:41:45 29° 257° (WSW) 09:45:19 437.505
SO-50 24 May 09:44:26 09:48:17 28° 246° (WSW) 09:52:07 436.795
Oscar 11 24 May 09:46:46 09:50:33 28° 95° (E) 09:54:17 .
HO-68 24 May 09:46:47 09:53:53 63° 291° (WNW) 10:00:57 435.675
UNISAT 6 24 May 09:54:30 09:57:55 24° 67° (ENE) 10:01:23 437.425
FO-29 24 May 09:57:51 10:02:18 30° 66° (ENE) 10:06:50 435.910
NO-84 24 May 10:03:53 10:08:03 43° 132° (SE) 10:12:05 435.350 FM
AO-73 24 May 10:09:27 10:13:59 65° 101° (E) 10:18:31 145.935
CUTE 1.7 + AOD 2 24 May 10:14:19 10:17:13 18° 294° (WNW) 10:20:05 437.475
ZACube-1 24 May 10:21:46 10:26:18 85° 290° (WNW) 10:30:55 437.345
CUBEBUG 2 24 May 10:22:38 10:26:37 31° 290° (WNW) 10:30:40 437.445
RS-15 24 May 10:28:41 10:39:42 35° 31° (NNE) 10:50:18 29.354- 29.394
EO-88 24 May 10:34:30 10:36:55 16° 93° (E) 10:39:19 145.990 - 145.960
UWE-3 24 May 10:38:43 10:42:48 34° 290° (WNW) 10:46:57 435.000/436.395/437.385
AAUSAT CUBESAT 2 24 May 10:40:52 10:44:21 26° 291° (WNW) 10:47:48 437.432
PRISM 24 May 10:51:44 10:55:48 57° 259° (WSW) 10:59:54 437.425
TIGRISAT 24 May 10:59:10 11:03:24 74° 257° (WSW) 11:07:44 435.000
Oscar 11 24 May 11:22:56 11:26:35 26° 292° (WNW) 11:30:12 .
DELFI C3 24 May 11:23:51 11:27:48 83° 283° (WNW) 11:31:42 145.870
YUBILEINY 24 May 11:30:42 11:35:21 15° 57° (ENE) 11:39:59 435.215
UNISAT 6 24 May 11:30:43 11:34:28 30° 264° (W) 11:38:18 437.425
HO-68 24 May 11:37:14 11:40:13 13° 311° (NW) 11:43:12 435.675
NO-84 24 May 11:41:45 11:45:44 34° 328° (NNW) 11:49:34 435.350 FM
FO-29 24 May 11:42:48 11:47:24 32° 264° (W) 11:52:03 435.910
NANOSAT C BR1 24 May 11:43:58 11:47:14 22° 67° (ENE) 11:50:30 145.865
POLYITAN 1 24 May 11:45:41 11:49:08 26° 68° (ENE) 11:52:38 437.675
AO-73 24 May 11:47:22 11:49:40 14° 297° (WNW) 11:51:59 145.935
QB50P2 24 May 11:53:49 11:57:35 34° 70° (ENE) 12:01:24 145.880/145.840
DUCHIFAT 1 24 May 11:55:53 11:59:23 27° 68° (ENE) 12:02:54 145.980
AIST 2D 24 May 12:06:14 12:09:43 88° 89° (E) 12:13:17 435.315
EO-88 24 May 12:07:22 12:10:40 31° 289° (WNW) 12:13:57 145.990 - 145.960
